Weather Roundup
Issued by NWS Springfield, MO

Home | Current Version | Previous Version | Text Only | Print | Product List | Glossary On
Versions: 1 2 3 4 5 6 7 8 9 10 11 12 13 14 15 16 17 18 19 20 21 22 23 24 25 26 27 28 29 30 31 32 33 34 35 36 37 38 39 40 41 42 43 44 45 46 47 48 49 50
634
NZUS99 KSGF 200307
HRRSGF

HOURLY WEATHER
NATIONAL WEATHER SERVICE SPRINGFIELD MO
900 PM CST SUN FEB 19 2017

......SGF CWA......

CITY           SKY/WX    TMP DP  RH WIND       PRES   REMARKS
SPRINGFIELD    CLEAR     63  56  78 S16       29.98R
JOPLIN         MOCLDY    68  55  63 SE7       29.93R
WEST PLAINS    CLEAR     59  55  87 SE6       30.06S
ROLLA          CLEAR     61  53  75 SE9       30.02R
OSAGE BEACH    CLEAR     64  56  75 SE8       29.99F
BRANSON        MOCLDY    63  55  77 SE14      30.02R

......SURROUNDING SGF CWA......

CITY           SKY/WX    TMP DP  RH WIND       PRES   REMARKS
CHANUTE        MOCLDY    61  55  81 SE5       29.90R
PARSONS        PTCLDY    64  56  75 S5        29.90S
COFFEYVILLE    MOCLDY    63  57  81 S5        29.90S
EMPORIA        CLEAR     57  54  89 SE10      29.87S
GROVE OK       PTCLDY    66  59  77 SE7       29.94S
ROGERS AR      CLOUDY    67  56  67 SE9       29.99R
SILOAM SPRINGS MOCLDY    66  55  68 S12G20    29.96R
HARRISON AR    CLEAR     59  56  89 SE7       30.03R
NEAR YELLVILLE CLEAR     61  52  72 SE5       30.01R

......KANSAS AND MISSOURI......

CITY           SKY/WX    TMP DP  RH WIND       PRES   REMARKS
KANSAS CTY INT MOCLDY    59  52  77 S9        29.90R
DOWNTOWN KC    PTCLDY    65  52  62 S8        29.90R
COLUMBIA       PTCLDY    64  50  60 SE12      29.98S
SEDALIA        PTCLDY    67  54  63 SE13      29.95S
ST JOSEPH      PTCLDY    60  54  80 S8        29.88R
ST LOUIS       MOCLDY    62  52  69 SE12      30.06R
SPIRIT OF STL  CLOUDY    62  52  69 SE5       30.04R
KIRKSVILLE     PTCLDY    60  47  61 SE12      29.96S
WICHITA        CLOUDY    63  58  83 S14       29.83F
TOPEKA         PTCLDY    62  54  74 S9        29.89R
OLATHE         CLOUDY    60  52  74 S6        29.92R

......TENNESSEE......

CITY           SKY/WX    TMP DP  RH WIND       PRES   REMARKS
MEMPHIS        MOCLDY    66  51  58 SE6       30.08R
NASHVILLE      CLEAR     56  48  74 SE3       30.13R

......ARKANSAS.......

CITY           SKY/WX    TMP DP  RH WIND       PRES   REMARKS
FAYETTEVILLE   PTCLDY    66  57  72 SE6       29.98R
FT SMITH       PTCLDY    65  56  72 NE7       29.96R
LITTLE ROCK    CLEAR     61  55  81 E7        30.02R

......OKLAHOMA.......

CITY           SKY/WX    TMP DP  RH WIND       PRES   REMARKS
TULSA          CLOUDY    68  61  78 SE12      29.86F
MCALESTER      MOCLDY    65  59  81 E6        29.90S
OKLAHOMA CITY  LGT RAIN  64  62  93 SE12      29.81S

......IOWA............

CITY           SKY/WX    TMP DP  RH WIND       PRES   REMARKS
DES MOINES     CLOUDY    62  46  55 SE10      29.88F
QUAD CITIES    PTCLDY    58  44  60 SE8       30.01R

......ILLINOIS........

CITY           SKY/WX    TMP DP  RH WIND       PRES   REMARKS
QUINCY         MOCLDY    58  49  72 SE10      30.01R
CHICAGO        MOCLDY    45  30  55 SE7       30.08R




USA.gov is the U.S. government's official web portal to all federal, state and local government web resources and services.